FENGYUN 1C DEB

Satellite information

Favourite Embed

Satellite Type and Status

DEBRISIN ORBIT

Key statistics

Satellite FENGYUN 1C DEB at a glance.

Uptime

9500

Days in orbit

Revolutions

≈ 14.4

Per day

Orbit

SSO

Sun Synchronous Orbit

Inclination

98.3

Latest

Satellite identification and parameters

Extended collection of information and parameters for FENGYUN 1C DEB.

Object identification

Identified? True

Debris? True

Object name: FENGYUN 1C DEB

International designator: 1999-025DBX

Object number (NORAD): 32459

Object ID (CCSDS): 32459

Country: PEOPLES REPUBLIC OF CHINA (PRC)

Current information (Y/N): Y

RCS size: SMALL

Orbital parameters

Period: 99.897 minutes

Inclination: 98.3112 deg

SMA: 7131.727 km

Apoapsis: 909.354 km

Periapsis: 597.829 km

RAAN: 150.5887 deg

Eccentricy: 0.0218408

Argument of periapsis: 119.238 deg

Mean anomaly: 243.0842 deg

Mean motion: 14.41487004 rev/day

Mean motion (dot): 0.0000317 rev/day2

B* drag term: 0.00074522 1/REarth

Two-line elements (TLE)

Creation date: May 11, 2025, 2:40 a.m.

Reference frame: TEME

Reference center: EARTH

Epoch: May 10, 2025, 8:43 p.m. UTC

TLE line 0: 0 FENGYUN 1C DEB

TLE line 1: 1 32459U 99025DBX 25130.86349083 .00003170 00000-0 74522-3 0 9994

TLE line 2: 2 32459 98.3112 150.5887 0218408 119.2380 243.0842 14.41487004914392

Live tracking on map

Real-time ground track for satellite FENGYUN 1C DEB.

In-orbit conjunctions

A list of the most updated potential collisions computed for object FENGYUN 1C DEB.

Target Orbit TCA Probability of collision Miss distance Type
COSMOS 2251 DEB LEO 2025-03-06 12:34:01 0.0002497181 97.0 (m) DEBRIS
COSMOS 1937 LEO 2024-06-21 22:17:00 0.01087537 14.0 (m) PAYLOAD

Associated space launch

Chinese polar orbiting meteorological satellite

FENGYUN 1C DEB was lifted into orbit during the mission ‘Long March 4B | Feng Yun 1C’, on board a Long March 4B space rocket.

The launch took place on May 10, 1999, 1:33 a.m. from Launch Complex 7.

For more information about the launch, click the button.

Launch to space Long March 4B | Feng Yun 1C
Long March 4B | Feng Yun 1C

Agency: N/A

Status: Launch Successful

Launch date: May 10, 1999, 1:33 a.m. UTC

Rocket: Long March 4B

Launch pad: Launch Complex 7

Location: Taiyuan Satellite Launch Center, People's Republic of China

...

Latest news about this satellite

There are no fresh news available about this satellite. Check back as we update our databases every day.


Newsletter sign-up

Weekly statistics, charts and insights to help you stay on top of the space industry.